Location: Mercogliano
(40.9167°N, 14.7333°E)
Time: 13:28:52
(UTC+00:00)

SJ-6B - Pass Details

Date: 18 September 2020
Orbit: 511 x 580 km, 97.6° (Epoch: 29 October)

Event Time Altitude Azimuth Distance (km) Brightness Sun altitude
Exits shadow 19:22:10 38° 254° (WSW) 786 3.9 -25.8°
Maximum altitude 19:22:21 39° 262° (W) 782 3.9 -25.9°
Drops below altitude 10° 19:25:53 10° 332° (NNW) 1,744 6.1 -26.5°
Sets 19:28:06 0° 340° (NNW) 2,641 7.0 -26.8°
